Location: Newark
(36.4904°N, 5.5399°E)
Time: 05:24:45
(UTC+00:00)

Envisat - Visible Passes

Search period start: 14 October 2019 00:00
Search period end: 24 October 2019 00:00
Orbit: 764 x 766 km, 98.1° (Epoch: 13 October)

Date Brightness Start Highest point End Pass type
(mag) Time Alt. Az. Time Alt. Az. Time Alt. Az.
14 Oct 3.1 17:51:25 10° S 17:56:30 83° WSW 18:01:36 10° NNW visible
15 Oct 5.7 18:55:26 10° SW 18:59:00 19° W 19:02:36 10° NW visible
16 Oct 4.2 18:17:12 10° S 18:22:02 45° W 18:26:54 10° NNW visible
17 Oct 2.9 17:40:11 10° SSE 17:45:15 78° ENE 17:50:20 10° N visible
18 Oct 5.3 18:43:33 10° SSW 18:47:39 25° W 18:51:48 10° NW visible
19 Oct 6.4 05:16:59 10° ENE 05:19:31 14° E 05:22:03 10° ESE visible
19 Oct 3.7 18:05:46 10° S 18:10:45 58° W 18:15:46 10° NNW visible
20 Oct 3.0 17:29:02 10° SSE 17:34:00 60° ENE 17:39:01 10° N visible
20 Oct 6.1 19:10:58 10° WSW 19:13:23 13° W 19:15:48 10° WNW visible
21 Oct 4.8 18:31:51 10° SSW 18:36:20 31° W 18:40:51 10° NW visible
22 Oct 6.8 05:07:32 10° E 05:08:08 10° E 05:08:44 10° E visible
22 Oct 3.2 17:54:24 10° S 17:59:28 75° WSW 18:04:34 10° NNW visible
23 Oct 3.3 17:17:58 10° SE 17:22:48 47° ENE 17:27:39 10° N visible
23 Oct 5.8 18:58:42 10° SW 19:02:01 17° W 19:05:21 10° NW visible
